date,time,DOY,Ta_1_1_1,RH_1_1_1,LWin_1_1_1,LWout_1_1_1,SWin_1_1_1,SWout_1_1_1,PPFD_1_1_1,SWC_1_1_1,Ts_1_1_1
[yyyy-mm-dd],[HH:MM],[ddd.ddd],[K],[%],[W+1m-2],[W+1m-2],[W+1m-2],[W+1m-2],[µmol+1m-2s-1],[m+3m-3],[K]
2013-01-26,00:30,26.020,260.44866666666655,84.201333333333352,-5.2343333333333337,-9999.0,-4.53333333333333297E-002,-1.4736666666666669,1.60000000000000073E-002,-9999.0,279.90999999999991
2013-01-26,01:00,26.041,260.39399999999995,83.688999999999979,-5.2496666666666663,-9999.0,3.63333333333333147E-002,-1.3563333333333334,1.73333333333333325E-002,-9999.0,279.90999999999991
2013-01-26,01:30,26.062,260.41733333333337,83.830666666666644,-4.3886666666666674,-9999.0,-0.18933333333333338,-0.76300000000000012,1.66666666666666664E-002,-9999.0,279.90999999999991
2013-01-26,02:00,26.083,260.43666666666667,83.664999999999992,-4.0406666666666675,-9999.0,-0.22900000000000001,-0.66700000000000015,1.36666666666666672E-002,-9999.0,279.90999999999991
2013-01-26,02:30,26.104,260.30700000000007,82.909000000000006,-4.1033333333333326,-9999.0,-0.25333333333333335,-0.76166666666666660,1.53333333333333360E-002,-9999.0,279.90999999999991
2013-01-26,03:00,26.124,260.15466666666669,82.359666666666683,-5.2129999999999992,-9999.0,-0.16433333333333336,-1.3533333333333337,9.33333333333333411E-003,-9999.0,279.90999999999991
2013-01-26,03:30,26.145,259.94333333333333,83.051333333333346,-5.4180000000000010,-9999.0,-0.18933333333333335,-1.2489999999999999,6.33333333333333318E-003,-9999.0,279.90999999999991
2013-01-26,04:00,26.166,259.86233333333337,83.492666666666679,-4.7553333333333336,-9.0207692307692309,-0.37433333333333330,-0.76933333333333320,7.66666666666666885E-003,-9999.0,279.90999999999991
2013-01-26,04:30,26.187,259.83200000000005,83.838333333333352,-4.9683333333333328,-8.7543478260869563,-0.48333333333333334,-0.76099999999999979,9.00000000000000105E-003,-9999.0,279.90999999999991
2013-01-26,05:00,26.208,259.87133333333333,83.936666666666653,-4.8546666666666685,-8.0722222222222211,-0.51033333333333342,-0.70833333333333326,1.23333333333333333E-002,-9999.0,279.90999999999991
2013-01-26,05:30,26.229,259.86399999999998,83.997333333333330,-4.8929999999999998,-8.0453571428571404,-0.54966666666666664,-0.74299999999999999,1.06666666666666680E-002,-9999.0,279.90999999999991
2013-01-26,06:00,26.249,259.85199999999998,84.203999999999994,-5.1580000000000004,-8.4299999999999997,-0.54333333333333322,-0.83566666666666678,8.33333333333333322E-003,-9999.0,279.90999999999991
2013-01-26,06:30,26.270,259.83600000000001,84.559000000000012,-5.9069999999999991,-9999.0,-0.65000000000000002,-1.0976666666666663,1.00000000000000002E-002,-9999.0,279.90999999999991
2013-01-26,07:00,26.291,259.77233333333339,84.689666666666710,-5.5850000000000000,-9999.0,-0.67800000000000005,-1.1190000000000000,2.76666666666666658E-002,-9999.0,279.90999999999991
2013-01-26,07:30,26.312,259.69433333333330,84.710999999999999,-4.9173333333333327,-9.8550000000000004,-0.30400000000000005,8.66666666666667668E-002,2.1013333333333337,-9999.0,279.90999999999991
2013-01-26,08:00,26.333,259.70699999999999,84.702333333333357,-6.0663333333333327,-9999.0,1.8180000000000001,9.3129999999999988,22.307666666666663,-9999.0,279.90999999999991
2013-01-26,08:30,26.354,259.88533333333334,84.323000000000008,-7.6486666666666689,-9999.0,8.2896666666666672,37.359333333333339,76.640666666666675,-9999.0,279.90999999999991
2013-01-26,09:00,26.374,260.37766666666670,84.094666666666683,-7.3090000000000002,-9999.0,17.797333333333334,76.953666666666678,151.87733333333335,-9999.0,279.90999999999991
2013-01-26,09:30,26.395,261.08000000000004,82.817666666666653,-7.2526666666666655,-9999.0,25.684666666666669,111.43966666666665,221.06766666666667,-9999.0,279.90999999999991
2013-01-26,10:00,26.416,261.59166666666664,80.857666666666688,-8.6713333333333331,-9999.0,34.384666666666661,150.70566666666667,300.23533333333330,-9999.0,279.90999999999991
2013-01-26,10:30,26.437,261.88366666666673,77.904666666666657,-6.4660000000000029,-9999.0,44.754333333333335,196.48666666666665,385.73333333333335,-9999.0,279.90999999999991
2013-01-26,11:00,26.458,262.30700000000007,73.957000000000008,-7.3051851851851852,-9999.0,69.347999999999999,331.28966666666668,623.20366666666678,-9999.0,279.90999999999991
2013-01-26,11:30,26.479,262.32733333333334,73.883333333333312,-8.5016666666666669,-9999.0,57.157000000000011,303.44099999999997,594.06966666666665,-9999.0,279.90999999999991
2013-01-26,12:00,26.499,263.22433333333328,72.648666666666671,-7.6757142857142853,-9999.0,75.272333333333350,356.51366666666672,691.82700000000011,-9999.0,279.90999999999991
2013-01-26,12:30,26.520,263.81833333333333,69.739000000000004,-9999.0,-9999.0,68.346666666666664,334.52933333333334,658.96900000000016,-9999.0,279.90999999999991
2013-01-26,13:00,26.541,264.33600000000001,68.047666666666672,-9999.0,-9999.0,65.622999999999990,313.54333333333341,622.60866666666675,-9999.0,279.90999999999991
2013-01-26,13:30,26.562,264.50233333333330,68.834000000000003,-8.4335714285714278,-9999.0,56.748666666666658,264.45100000000002,532.66433333333339,-9999.0,279.90999999999991
2013-01-26,14:00,26.583,264.67900000000003,68.999333333333340,-7.4286666666666639,-9999.0,52.214666666666666,243.75166666666664,483.14966666666675,-9999.0,279.90999999999991
2013-01-26,14:30,26.604,265.25266666666664,67.484333333333325,-8.4696551724137930,-9999.0,38.429333333333339,179.93400000000003,359.68900000000008,-9999.0,279.90999999999991
2013-01-26,15:00,26.624,265.58166666666665,66.986000000000004,-9.2690000000000001,-9999.0,23.405666666666662,106.77699999999997,221.95066666666668,-9999.0,279.90999999999991
2013-01-26,15:30,26.645,265.67833333333340,68.672666666666672,-8.7919999999999998,-9999.0,18.518333333333331,84.473666666666688,175.93733333333333,-9999.0,279.90999999999991
2013-01-26,16:00,26.666,265.64033333333339,69.780333333333331,-8.6743333333333332,-9999.0,16.952666666666669,77.457999999999998,154.84199999999998,-9999.0,279.90999999999991
2013-01-26,16:30,26.687,265.75133333333332,71.343666666666678,-6.7900000000000000,-9999.0,9.9756666666666636,44.671333333333330,84.892000000000010,-9999.0,279.90999999999991
2013-01-26,17:00,26.708,265.49100000000004,73.242000000000004,-6.3466666666666667,-9999.0,1.1506666666666667,6.2726666666666668,15.416333333333338,-9999.0,279.90999999999991
2013-01-26,17:30,26.729,265.26333333333332,75.249333333333340,-5.7709999999999990,-9999.0,-0.39466666666666667,-0.44366666666666671,0.86466666666666658,-9999.0,279.90999999999991
2013-01-26,18:00,26.749,265.22833333333335,76.182666666666663,-5.8139999999999983,-9999.0,-0.45233333333333353,-0.78733333333333322,1.76666666666666673E-002,-9999.0,279.90999999999991
2013-01-26,18:30,26.770,265.08766666666668,75.049000000000021,-5.4300000000000006,-8.2041666666666675,-0.46566666666666678,-0.60599999999999987,7.33333333333333406E-003,-9999.0,279.90999999999991
2013-01-26,19:00,26.791,264.98733333333337,74.696666666666673,-5.3376666666666672,-5.9253333333333327,-0.51166666666666660,-0.50233333333333330,7.00000000000000101E-003,-9999.0,279.90999999999991
2013-01-26,19:30,26.812,264.85100000000006,73.219333333333324,-5.1913333333333327,-5.7599999999999998,-0.44633333333333330,-0.59566666666666668,3.33333333333333355E-003,-9999.0,279.90999999999991
2013-01-26,20:00,26.833,264.66200000000003,71.272333333333322,-5.0999999999999988,-5.1825925925925906,-0.42300000000000004,-0.42333333333333328,6.66666666666666796E-003,-9999.0,279.90999999999991
2013-01-26,20:30,26.854,264.54766666666677,70.259666666666661,-5.0010000000000021,-4.5083333333333337,-0.46566666666666678,-0.31566666666666676,1.30000000000000029E-002,-9999.0,279.90999999999991
2013-01-26,21:00,26.874,264.46366666666660,71.048333333333332,-4.8693333333333335,-5.7740000000000000,-0.40566666666666668,-0.37333333333333335,1.36666666666666707E-002,-9999.0,279.90999999999991
2013-01-26,21:30,26.895,264.48633333333345,72.049333333333351,-4.4726666666666670,-3.4440000000000004,-0.35566666666666669,-0.19400000000000003,1.53333333333333360E-002,-9999.0,279.90999999999991
2013-01-26,22:00,26.916,264.50500000000005,73.080999999999989,-4.3513333333333328,-2.8073333333333341,-0.33833333333333326,-0.15733333333333333,1.26666666666666664E-002,-9999.0,279.90999999999991
2013-01-26,22:30,26.937,264.51833333333332,73.887000000000000,-4.4656666666666673,-3.7126666666666677,-0.35866666666666658,-0.21966666666666665,9.33333333333333411E-003,-9999.0,279.90999999999991
2013-01-26,23:00,26.958,264.44833333333332,74.154666666666671,-5.8789999999999996,-4.9740000000000002,-0.23200000000000004,-1.3359999999999999,1.16666666666666655E-002,-9999.0,279.90999999999991
2013-01-26,23:30,26.979,264.28433333333339,73.828333333333333,-6.0179999999999998,-9999.0,-8.29999999999999905E-002,-1.3000000000000005,1.56666666666666725E-002,-9999.0,279.90999999999991
2013-01-27,00:00,27.000,264.38466666666670,73.090999999999980,-5.4609999999999994,-9999.0,-0.15800000000000003,-0.85366666666666646,1.26666666666666698E-002,-9999.0,279.90999999999991
